Find Starlink 30989

NORAD ID: 58510 Int'l Des: 2023-191 Owner: SPXS Country: US Constellation: starlink operational
LEOCIRCULAR

現在のビュー

3D地球を読み込み中...

About Starlink 30989

Starlink 30989 (NORAD 58510) is a starlink constellation satellite (v2 mini) launched Dec 7, 2023 by SPXS of US. It operates in LEO, CIRCULAR orbit with a mass of 730.00 kg.

次回通過

Passes for default location (London). Set your location on the main map for personalized predictions.

高度履歴

Loading altitude history...

軌道要素

1 58510U 23191C 26257.03790281 .00000308 00000-0 20721-4 0 9994
2 58510 43.0016 120.0093 0001215 270.2069 89.8643 15.27580288154302
Epoch: Sep 14, 2026 • Age: 8 hours

現在のステータス

高度 485.3 km
遠地点 / 近地点 N/A
速度 7.62 km/s
衛星直下点 -13.71°S, 20.26°W
打ち上げ日 Dec 7, 2023
運用期間 2.7 years
タイプ internet

技術仕様

分類 Payload
質量 730.00 kg
乾燥質量 700.00 kg
総質量 730.00 kg
長さ 0.30 m
直径 4.10 m
スパン 29.00 m
形状 Box + pan
製造者 SPXS
バスタイプ Starlink V2M
フェーズステータス In Orbit
所有者/国 SPXS/US

Most Searched